Muncie, IN

5:12 AM EDT on June 27, 2017 (GMT -0400)
Delaware County-Johnson

Weather History for KMIE - May, 2013

Change the Weather History Date:

Tuesday, May 21, 2013

  Actual Average Record
Temperature  
Mean Temperature 77 °F 63 °F  
Max Temperature 87 °F 74 °F 92 °F (1975)
Min Temperature 66 °F 53 °F 39 °F (2002)
Degree Days  
Heating Degree Days 0 4  
Month to date heating degree days 55 135  
Since 1 July heating degree days 5338 5727  
Cooling Degree Days 12 3  
Month to date cooling degree days 104 34  
Year to date cooling degree days 117 49  
Growing Degree Days 26 (Base 50)    
Moisture  
Dew Point 61 °F    
Average Humidity 61    
Maximum Humidity 81    
Minimum Humidity 40    
Precipitation  
Precipitation 0.02 in 0.14 in 1.34 in (1982)
Month to date precipitation 0.97 2.86  
Year to date precipitation 13.64 14.02  
Sea Level Pressure  
Sea Level Pressure 29.80 in    
Wind  
Wind Speed 11 mph (SSW)    
Max Wind Speed 32 mph    
Max Gust Speed 41 mph    
Visibility 10 miles    
Events Rain    
T = Trace of Precipitation, MM = Missing Value Source: NWS Daily Summary

Daily Weather History Graph

Daily Weather History Graph

Search for Another Location

Airport or City:

Trip Planner

Search our weather history database for the weather conditions in past years. The results will help you decide how hot, cold, wet, or windy it might be!

Date:

Astronomy

May. 21, 2013 Rise Set
Actual Time 6:20 AM EDT 8:56 PM EDT
Civil Twilight 5:49 AM EDT 9:27 PM EDT
Nautical Twilight 5:10 AM EDT 10:07 PM EDT
Astronomical Twilight 4:26 AM EDT 10:51 PM EDT
Moon 5:08 PM EDT (5/21) 3:48 AM EDT (5/21)
Length of Visible Light 15h 38m
Length of Day
14h 36m
Waxing Gibbous, 84% of the Moon is Illuminated
May 21
Waxing Gibbous
May 25
Full
May 31
Last Quarter
Jun 8
New
Jun 16
First Quarter

Hourly Weather History & Observations

Time (EDT) Temp. Heat Index Dew Point Humidity Pressure Visibility Wind Dir Wind Speed Gust Speed Precip Events Conditions
12:53 AM 78.1 °F - 64.9 °F 64% 29.82 in 10.0 mi South 10.4 mph - N/A   Clear
1:53 AM 77.0 °F - 64.9 °F 66% 29.83 in 10.0 mi SSW 9.2 mph 19.6 mph N/A   Clear
2:53 AM 77.0 °F - 64.9 °F 66% 29.81 in 10.0 mi SSW 9.2 mph 18.4 mph N/A   Clear
3:53 AM 75.9 °F - 64.9 °F 69% 29.79 in 10.0 mi SSW 11.5 mph - N/A   Clear
4:25 AM 68.0 °F - 60.8 °F 78% 29.88 in 9.0 mi West 18.4 mph 31.1 mph 0.02 in Rain Light Rain
4:53 AM 68.0 °F - 61.0 °F 78% 29.83 in 10.0 mi West 12.7 mph - 0.02 in   Mostly Cloudy
5:53 AM 66.9 °F - 61.0 °F 81% 29.82 in 10.0 mi South 5.8 mph - 0.00 in   Clear
6:53 AM 66.9 °F - 60.1 °F 79% 29.82 in 10.0 mi South 5.8 mph - N/A   Clear
7:53 AM 68.0 °F - 60.1 °F 76% 29.86 in 10.0 mi SSW 10.4 mph - N/A   Partly Cloudy
8:53 AM 70.0 °F - 60.1 °F 71% 29.87 in 10.0 mi SW 15.0 mph 24.2 mph N/A   Mostly Cloudy
9:53 AM 69.1 °F - 61.0 °F 75% 29.81 in 10.0 mi South 9.2 mph - 0.00 in   Mostly Cloudy
10:53 AM 75.9 °F - 61.0 °F 60% 29.81 in 10.0 mi South 12.7 mph 20.7 mph N/A   Clear
11:53 AM 80.1 °F 81.1 °F 61.0 °F 52% 29.81 in 10.0 mi SSW 15.0 mph 24.2 mph N/A   Clear
12:53 PM 81.0 °F 81.7 °F 61.0 °F 50% 29.80 in 10.0 mi SSW 17.3 mph 25.3 mph N/A   Clear
1:53 PM 84.0 °F 84.4 °F 61.0 °F 46% 29.77 in 10.0 mi SSW 11.5 mph 18.4 mph N/A   Clear
2:53 PM 84.9 °F 84.8 °F 60.1 °F 43% 29.78 in 10.0 mi SW 15.0 mph 20.7 mph N/A   Clear
3:53 PM 84.9 °F 84.4 °F 59.0 °F 41% 29.78 in 10.0 mi SSW 17.3 mph 26.5 mph N/A   Partly Cloudy
4:53 PM 84.9 °F 85.0 °F 61.0 °F 44% 29.77 in 10.0 mi SSW 12.7 mph 25.3 mph N/A   Partly Cloudy
5:50 PM 86.0 °F 85.4 °F 59.0 °F 40% 29.79 in 4.0 mi SSW 15.0 mph 21.9 mph N/A   Haze
5:53 PM 86.0 °F 85.7 °F 60.1 °F 41% 29.75 in 4.0 mi WSW 11.5 mph 21.9 mph N/A   Haze
6:53 PM 84.0 °F 83.5 °F 57.9 °F 41% 29.75 in 10.0 mi SW 13.8 mph 21.9 mph N/A   Clear
7:53 PM 82.0 °F 82.7 °F 61.0 °F 49% 29.75 in 10.0 mi SSW 9.2 mph 20.7 mph N/A   Clear
8:53 PM 80.1 °F 80.9 °F 60.1 °F 50% 29.75 in 10.0 mi SSW 6.9 mph - N/A   Clear
9:53 PM 78.1 °F - 59.0 °F 52% 29.76 in 10.0 mi SSW 9.2 mph 19.6 mph N/A   Clear
10:53 PM 75.9 °F - 59.0 °F 56% 29.78 in 10.0 mi SSW 9.2 mph - N/A   Clear
11:53 PM 75.0 °F - 59.0 °F 57% 29.77 in 10.0 mi SSW 8.1 mph - N/A   Clear